Regional Weather Roundup
Issued by NWS Upton, NY

Current Version | Previous Version | Text Only | Print | Product List | Glossary Off
Versions: 1 2 3 4 5 6 7 8 9 10 11 12 13 14 15 16 17 18 19 20 21 22 23 24 25 26 27 28 29 30 31 32 33 34 35 36 37 38 39 40 41 42 43 44 45 46 47 48 49 50

000
ASUS41 KOKX 051504
RWROKX

REGIONAL WEATHER ROUNDUP
NATIONAL WEATHER SERVICE NEW YORK NY
1100 AM EDT SAT SEP 05 2015

NOTE: "FAIR" INDICATES FEW OR NO CLOUDS BELOW 12,000 FEET WITH NO
SIGNIFICANT WEATHER AND/OR OBSTRUCTIONS TO VISIBILITY.

NYZ071-072-176-178-NJZ106-104-051600-
NEW YORK CITY METRO AREA


CITY           SKY/WX    TMP DP  RH WIND       PRES   REMARKS
CENTRAL PARK   SUNNY     73  54  51 E9        30.32R
LAGUARDIA APRT MOSUNNY   72  57  59 NE13      30.29R
KENNEDY INTL   MOSUNNY   76  57  51 NE9       30.29R
NEWARK/LIBERTY MOSUNNY   76  55  48 NE9       30.29R
BRNX BOT. GARD   N/A     72  54  53 E3        30.30R
TETERBORO      SUNNY     75  51  43 VRB5      30.28S
$$

NYZ177-179-078>081-051600-
LONG ISLAND NEW YORK

CITY           SKY/WX    TMP DP  RH WIND       PRES   REMARKS
FARMINGDALE    SUNNY     75  57  53 MISG      30.28S
ISLIP          MOSUNNY   74  58  57 NE7       30.27R
SHIRLEY        SUNNY     73  58  59 VRB3      30.29S
WESTHAMPTON    MOSUNNY   74  58  57 N10       30.30R
MONTAUK POINT    N/A     71  59  65 NE8       30.30S
$$

NYZ052-065-067-051600-
HUDSON VALLEY

CITY           SKY/WX    TMP DP  RH WIND       PRES   REMARKS
WHITE PLAINS   MOSUNNY   74  48  39 NE8       30.29S
NEWBURGH       SUNNY     73  52  46 E10       30.31F
MONTGOMERY     SUNNY     75  52  44 VRB5      30.30S
POUGHKEEPSIE   SUNNY     76  47  35 NE6       30.29F
ALBANY         SUNNY     74  56  53 VRB5      30.30S
$$

NJZ001-105-106-008-010-013-015-019>022-104-051600-
NEW JERSEY

CITY           SKY/WX    TMP DP  RH WIND       PRES   REMARKS
NEWARK/LIBERTY MOSUNNY   76  55  48 NE9       30.29R
TETERBORO      SUNNY     75  51  43 VRB5      30.28S
CALDWELL       SUNNY     76  49  38 E9        30.29S
MORRISTOWN     SUNNY     77  59  53 E7        30.29S
SOMERVILLE     SUNNY     78  57  48 MISG      30.26S
SUSSEX         SUNNY     74  52  46 N5        30.30S
ANDOVER          N/A     75  60  59 VRB5      30.30S
TRENTON        SUNNY     76  60  57 NE8       30.26S
MILLVILLE      SUNNY     79  62  56 NE10      30.24S
ATLANTIC CITY  MOSUNNY   77  62  59 NE13      30.25R
WRIGHTSTOWN    SUNNY     76  63  64 E8        30.24R
TOMS RIVER     PTSUNNY   75  61  60 E8G16     30.27R
BELMAR         MOSUNNY   72  57  60 NE14      30.27F
$$

PAZ047>061-062-071-051600-
EASTERN PENNSYLVANIA

CITY           SKY/WX    TMP DP  RH WIND       PRES   REMARKS
PHILADELPHIA   MOSUNNY   80  61  52 E9        30.25S
ALLENTOWN      SUNNY     77  60  55 E6        30.28S
SCRANTON       MOSUNNY   76  61  59 CALM      30.29F
$$

CTZ002-004>006-009-010-012-RIZ004-006-007-MAZ004-011-015-051600-
SOUTHERN NEW ENGLAND
 IN CT

CITY           SKY/WX    TMP DP  RH WIND       PRES   REMARKS
BRADLEY INTL   SUNNY     72  52  49 VRB3      30.30F
HARTFORD       SUNNY     73  52  47 E5        30.30F
DANBURY        SUNNY     71  50  47 NE7       30.32R
WTRBRY/OXFORD  SUNNY     72  48  43 VRB6      30.33R
BRIDGEPORT     SUNNY     72  55  55 E12       30.29F
MERIDEN        SUNNY     76  49  38 VRB3      30.30S
NEW HAVEN      SUNNY     74  51  44 E9        30.30S
CHESTER        NOT AVBL
GROTON         SUNNY     72  56  57 NE7       30.29S
WILLIMANTIC    SUNNY     74  51  44 N7        30.30F

 IN RI

CITY           SKY/WX    TMP DP  RH WIND       PRES   REMARKS
PROVIDENCE     MOSUNNY   71  55  56 E5        30.30F
BLOCK ISLAND   SUNNY     70  57  64 NE13      30.30R
WESTERLY       SUNNY     72  56  57 E9        30.30S

 IN MA

CITY           SKY/WX    TMP DP  RH WIND       PRES   REMARKS
BOSTON         MOSUNNY   70  50  49 SE6       30.31S
WORCESTER      SUNNY     69  47  45 VRB3      30.33S
WESTFIELD      SUNNY     72  53  51 CALM      30.31F
PROVINCETOWN     N/A     70  57  64 NE10      30.30F
NANTUCKET      SUNNY     70  57  63 NE15G21   30.27F
$$

ANZ330-335-338-340-345-350-353-355-051600-
COASTAL MARINE OBSERVATIONS


STATION/POSITION TIME  SKY/WX   TEMP    WIND        PRES    VSBY  WAVE
                                AIR SEA DIR/SP/G                  HT/PER
                 (UTC)          (F)     (DEG/KT/KT) (MB)    (MI)  (FT/S)
NY HARB ENTRANCE 1350            69 74   50/ 16/ 17 1024.4          5/ 7
4S FIRE IS       NOT AVBL
20S FIRE ISLAND  1350            69 74   60/ 16/ 19 1024.1          5/ 7
GREAT SOUTH BAY  1400            69 78   90/ 10/ 12   N/A
23SW MTP         1450            67 72   60/ 16/ 19 1024.5          4/ 6
HUDSON CANYON    NOT AVBL
KINGS POINT      1400            70 74   30/  3/ 10 1024.8
EXECUTION ROCKS  1400            68      60/ 12/ 16   N/A
CENTRAL LI SOUND NOT AVBL
EASTERN LI SOUND 1400            67 71   60/ 10/ 16   N/A
ROBBINS REEF     1400            68      50/ 13/ 16 1024.1
$$


>>>>>>>>>>>>>>>>>>>>>>>>>>>> KEY <<<<<<<<<<<<<<<<<<<<<<<<<<<
>                                                          <
>     SKY/WX - SKY CONDITION/PRESENT WEATHER               <
>     TMP    - TEMPERATURE IN FAHRENHEIT                   <
>     DP     - DEWPOINT IN FAHRENHEIT                      <
>     RH     - RELATIVE HUMIDITY IN PERCENT                <
>     WIND   - DIRECTION AND SPEED IN MPH                  <
>     PRES   - MEAN SEA LEVEL PRESSURE IN INCHES OF HG     <
>     WCI    - WIND CHILL INDEX                            <
>     VSB    - VISIBILITY IN MILES                         <
>     HX     - HEAT INDEX                                  <
>     TC     - TEMPERATURE IN CELSIUS                      <
>     VRB    - VARIABLE WIND DIRECTION                     <
>                                                          <
>>>>>>>>>>>>>>>>>>>>>>>>>>>> KEY <<<<<<<<<<<<<<<<<<<<<<<<<<<




USA.gov is the U.S. government's official web portal to all federal, state and local government web resources and services.